Zurück zum Katalog

STARLINK-37653

AktivKommunikationSSO
NORAD 69140·PAYLOAD·🇺🇸 United States

Gestartet May 20, 2026 von Vandenberg Space Force Base

Loading…

Nächste Überflüge (nächste 24 Stunden)

TLE

AktuellSource: CelesTrak SupGP

Epoche: Sep 14, 2026, 21:34 UTC

1 69140C 26110S   26257.89909722  .00078705  00000+0  24425-2 0  2570
2 69140  97.2848  93.0650 0001590  88.6402 133.3824 15.33407419    18

Verfolge STARLINK-37653 in Echtzeit mit AllMySat

Download on the App Store